Погода в Машкине

Россия / Калужская область     54°53′06″N   36°08′17″E
темп.,
°C
ветер,
м/с
пор.,
м/с
влажн.,
%
обл.,
%
осадки,
мм/ч
давл.,
гПа
погр.,
м
5 августа, чт
чт500:00+15юв1173100 0.1 101719
03:00+14ююв228547 0.4 101718
06:00+13ююв2288100 0.0 101735
09:00+18юв3568100 0.0 1016393
12:00+19юз7874100 1.0 1016871
15:00+15в3594100 5.1 1015150
18:00+17юв258896 0.4 1014328
21:00+15в3696100 1.2 1013113
6 августа, пт
пт600:00+14юв239398 0.4 101253
03:00+15юв229222 1.0 101127
06:00+15ююв239682 1.5 101184
09:00+20ююв3484100 1.6 1010363
12:00+19ююз4791100 1.1 1011515
15:00+19в2392100 2.8 1010220
18:00+20всв4892100 0.0 1009308
21:00+18в51289100 0.1 1008319
7 августа, сб
сб700:00+17в51194100 0.1 1007255
03:00+16в3797100 0.5 1007159
06:00+17ююв3693100 0.0 1007136
09:00+22ю4776100 0.1 1007490
12:00+26ю586171 0.0 10081253
15:00+28ю7104994 0.0 10071825
18:00+24ююз3769100 0.2 1007183
21:00+19зюз2393100 0.4 100944
8 августа, вс
вс800:00+19з3793100 0.0 1011233
03:00+15зюз3493100 0.0 101367
06:00+13зюз3793100 0.0 1013161
09:00+17зюз3578100 0.0 1014432
12:00+22зюз3462100 0.0 10151151
15:00+24юз344822 0.0 10151837
18:00+22ссз456385 0.0 1016409
21:00+17ссз11760 0.0 101711
9 августа, пн
пн900:00+15зюз22821 0.0 101811
03:00+14з22862 0.0 101911
06:00+14з11826 0.0 101911
09:00+21юз116139 0.0 1019325
12:00+25зюз114714 0.0 10191220
15:00+26ююв114013 0.0 10181453
18:00+26всв014941 0.0 1017919
21:00+20вюв115764 0.0 101811